Location: Équennes
(49.7375°N, 1.9622°E)
Time: 13:09:36
(UTC+00:00)

Cosmos 2278 - Visible Passes

Search period start: 25 September 2023 00:00
Search period end: 05 October 2023 00:00
Orbit: 838 x 853 km, 71.1° (Epoch: 25 September)

Date Brightness Start Highest point End Pass type
(mag) Time Alt. Az. Time Alt. Az. Time Alt. Az.
25 Sep 6.3 00:14:18 10° N 00:17:33 15° NNE 00:20:46 10° ENE visible
25 Sep 4.4 01:57:32 10° NNW 02:03:08 50° NE 02:04:30 41° E visible
25 Sep 4.5 03:42:01 10° NW 03:53:09 - S 03:46:01 31° W visible
25 Sep 5.2 18:38:23 10° WSW 18:43:41 40° NW 18:49:04 10° NNE visible
25 Sep 6.5 20:27:01 10° NW 20:29:33 13° NNW 20:32:05 10° N visible
26 Sep 6.3 00:00:28 10° N 00:03:39 15° NNE 00:06:11 12° ENE visible
26 Sep 4.8 01:43:42 10° NNW 01:47:56 41° NNE 01:47:56 41° NNE visible
26 Sep 5.4 03:28:09 10° NW 03:29:41 18° NW 03:29:41 18° NW visible
26 Sep 5.1 18:24:29 10° WSW 18:29:50 41° NW 18:35:13 10° NNE visible
26 Sep 6.5 20:13:03 10° NW 20:15:39 13° NNW 20:18:16 10° N visible
26 Sep 6.3 23:46:39 10° N 23:49:45 15° NNE 23:51:03 14° NE visible
27 Sep 5.3 01:29:50 10° NNW 01:32:51 29° N 01:32:51 29° N visible
27 Sep 5.9 03:14:15 10° NW 03:14:40 12° NW 03:14:40 12° NW visible
27 Sep 5.1 18:10:36 10° WSW 18:15:57 41° NW 18:21:22 10° NNE visible
27 Sep 6.4 19:59:04 10° NW 20:01:45 13° NNW 20:04:26 10° N visible
27 Sep 6.2 23:32:48 10° N 23:35:51 14° NNE 23:36:26 14° NE visible
28 Sep 5.6 01:15:59 10° NNW 01:18:15 23° N 01:18:15 23° N visible
28 Sep 5.1 17:56:42 10° WSW 18:02:05 42° NW 18:07:31 10° NNE visible
28 Sep 6.4 19:45:06 10° WNW 19:47:51 13° NNW 19:50:37 10° N visible
28 Sep 6.3 23:18:58 10° N 23:21:57 14° NNE 23:22:04 14° NNE visible
29 Sep 5.9 01:02:09 10° NNW 01:03:54 20° NNW 01:03:54 20° NNW visible
29 Sep 6.4 19:31:08 10° WNW 19:33:57 14° NNW 19:36:47 10° N visible
29 Sep 6.3 23:05:08 10° N 23:07:51 14° NNE 23:07:51 14° NNE visible
30 Sep 6.0 00:48:17 10° NNW 00:49:41 17° NNW 00:49:41 17° NNW visible
30 Sep 6.3 19:17:10 10° WNW 19:20:03 14° NNW 19:22:57 10° N visible
30 Sep 6.3 22:51:18 10° N 22:53:45 14° NNE 22:53:45 14° NNE visible
01 Oct 6.2 00:34:25 10° NNW 00:35:36 16° NNW 00:35:36 16° NNW visible
01 Oct 6.3 19:03:12 10° WNW 19:06:09 14° NNW 19:09:07 10° N visible
01 Oct 6.3 22:37:28 10° N 22:39:43 13° NNE 22:39:43 13° NNE visible
02 Oct 6.2 00:20:34 10° NNW 00:21:34 15° NNW 00:21:34 15° NNW visible
02 Oct 6.3 18:49:13 10° WNW 18:52:15 14° NNW 18:55:17 10° N visible
02 Oct 6.3 22:23:38 10° N 22:25:45 13° NNE 22:25:45 13° NNE visible
03 Oct 6.3 00:06:43 10° NNW 00:07:36 14° NNW 00:07:36 14° NNW visible
03 Oct 6.2 18:35:16 10° WNW 18:38:21 15° NNW 18:41:27 10° N visible
03 Oct 6.3 22:09:48 10° N 22:11:49 13° NNE 22:11:49 13° NNE visible
03 Oct 6.4 23:52:51 10° NNW 23:53:41 14° NNW 23:53:41 14° NNW visible
04 Oct 6.2 18:21:17 10° WNW 18:24:26 15° NNW 18:27:36 10° N visible
04 Oct 6.2 21:55:58 10° N 21:57:56 13° NNE 21:57:56 13° NNE visible
04 Oct 6.4 23:39:00 10° NNW 23:39:48 14° NNW 23:39:48 14° NNW visible
